Tracking 19854 objects as of 22-Sep-2019
HD Live streaming from Space Station
objects crossing your sky now

NOAA 16 DEB

Track NOAA 16 DEB now!
10-day predictions


NORAD ID: 41419
Int'l Code: 2000-055KY
Perigee: 848.6 km
Apogee: 872.9 km
Inclination: 98.9 °
Period: 102.0 minutes
Semi major axis: 7231 km
RCS: Unknown
Launch date: September 21, 2000
Source: United States (US)
Launch site: AIR FORCE WESTERN TEST RANGE (AFWTR)

Note: This is SATELLITE DEBRIS
aabbcc
Your satellite tracking list
Your tracking list is empty




NASA's NSSDC Master Catalog

Two Line Element Set (TLE):
1 41419U 00055KY  19265.01450880  .00000778  00000-0  45159-3 0  9997
2 41419  98.8937 336.9630 0016812 353.1436   6.9502 14.11682681184179
Source of the keplerian elements: AFSPC